Probability
0 0 0 0 0 0 0 0 0 0 0 0 0 0 0 0 0 0 0 0 0 0 0 0 0 0 0 0 0 0 0 0 0 0 0 0 0 0 0 0 0 0 0 0 0 0 0 0 0
0 0 0 0 0 0 0 0 0 0 0 0 0 0 0 0 0 0 0 0 0 0 0 0 0 0 0 0 0 0 0 0 0 0 0 0 0 0 0 0 0 0 0 0 0 0 0 0 0
0 0 0 0 0 0 0 0 0 0 0 0 0 0 0 0 0 0 0 0 0 0 0 0 0 0 0 0 0 0 0 0 0 0 0 0 0 0 0 0 0 0 0 0 0 0 0 0 0
0 0 0 0 0 0 0 0 0 0 0 0 0 0 0 0 0 0 0 0 0 0 0 0 0 0 0 0 0 0 0 0 0 0 0 0 0 0 0 0 0 0 0 0 0 0 0 0 0
0 0 0 0 0 0 0 0 0 0 0 0 0 0 0 0 0 0 0 0 0 0 0 0 0 0 0 0 0 0 0 0 0 0 0 0 0 0 0 0 0 0 0 0 0 0 0 0 0
0 0 0 0 0 0 0 0 0 0 0 0 0 0 0 0 0 0 0 0 0 0 0 0 0 0 0 0 0 0 0 0 0 0 0 0 0 0 0 0 0 0 0 0 0 0 0 0 0
0 0 0 0 0 0 0 0 0 0 0 0 0 0 0 0 0 0 0 0 0 0 0 0 0 0 0 0 0 0 0 0 0 0 0 0 0 0 0 0 0 0 0 0 0 0 0 0 0
0 0 0 0 0 0 0 0 0 0 0 0 0 0 0 0 0 0 0 0 0 0 0 0 0 0 0 0 0 0 0 0 0 0 0 0 0 0 0 0 0 0 0 0 0 0 0 0 0
0 0 0 0 0 0 0 0 0 0 0 0 0 0 0 0 0 0 0 0 0 0 0 0 0 0 0 0 0 0 0 0 0 0 0 0 0 0 0 0 0 0 0 0 0 0 0 0 0
0 0 0 0 0 0 0 0 0 0 0 0 0 0 0 0 0 0 0 0 0 0 0 0 0 0 0 0 0 0 0 0 0 0 0 0 0 0 0 0 0 0 0 0 0 0 0 0 0
0 0 0 0 0 0 0 0 0 0 0 0 0 0 0 0 0 0 0 0 0 0 0 0 0 0 0 0 0 0 0 0 0 0 0 0 0 0 0 0 0 0 0 0 0 0 0 0 0
0 0 0 0 0 0 0 0 0 0 0 0 0 0 0 0 0 0 0 0 0 0 0 0 0 0 0 0 0 0 0 0 0 0 0 0 0 0 0 0 0 0 0 0 0 0 0 0 0
0 0 0 0 0 0 0 0 0 0 0 0 0 0 0 0 0 0 0 0 0 0 0 0 0 0 0 0 0 0 0 0 0 0 0 0 0 0 0 0 0 0 0 0 0 0 0 0 0
0 0 0 0 0 0 0 0 0 0 0 0 0 0 0 0 0 0 0 0 0 0 0 0 0 0 0 0 0 0 0 0 0 0 0 0 0 0 0 0 0 0 0 0 0 0 0 0 0
0 0 0 0 0 0 0 0 0 0 0 0 0 0 0 0 0 0 0 0 0 0 0 0 0 0 0 0 0 0 0 0 0 0 0 0 0 0 0 0 0 0 0 0 0 0 0 0 0
0 0 0 0 0 0 0 0 0 0 0 0 0 0 0 0 0 0 0 0 0 0 0 0 0 0 0 0 0 0 0 0 0 0 0 0 0 0 0 0 0 0 0 0 0 0 0 0 0
0 0 0 0 0 0 0 0 0 0 0 0 0 0 0 0 0 0 0 0 0 0 0 0 0 0 0 0 0 0 0 0 0 0 0 0 0 0 0 0 0 0 0 0 0 0 0 0 0
0 0 0 0 0 0 0 0 0 0 0 0 0 0 0 0 0 0 0 0 0 0 0 0 0 0 0 0 0 0 0 0 0 0 0 0 0 0 0 0 0 0 0 0 0 0 0 0 0
0 0 0 0 0 0 0 0 0 0 0 0 0 0 0 0 0 0 0 0 0 0 0 0 0 0 0 0 0 0 0 0 0 0 0 0 0 0 0 0 0 0 0 0 0 0 0 0 0
0 0 0 0 0 0 0 0 0 0 0 0 0 0 0 0 0 0 0 0 0 0 0 0 0 0 0 0 0 0 0 0 0 0 0 0 0 0 0 0 0 0 0 0 0 0 0 0 0
0 0 0 0 0 0 0 0 0 0 0 0 0 0 0 0 0 0 0 0 0 0 0 0 0 0 0 0 0 0 0 0 0 0 0 0 0 0 0 0 0 0 0 0 0 0 0 0 0
0 0 0 0 0 0 0 0 0 0 0 0 0 0 0 0 0 0 0 0 0 0 0 0 0 0 0 0 0 0 0 0 0 0 0 0 0 0 0 0 0 0 0 0 0 0 0 0 0
0 0 0 0 0 0 0 0 0 0 0 0 0 0 0 0 0 0 0 0 0 0 0 0 0 0 0 0 0 0 0 0 0 0 0 0 0 0 0 0 0 0 0 0 0 0 0 0 0
0 0 0 0 0 0 0 0 0 0 0 0 0 0 0 0 0 0 0 0 0 0 0 0 0 0 0 0 0 0 0 0 0 0 0 0 0 0 0 0 0 0 0 0 0 0 0 0 0
0 0 0 0 0 0 0 0 0 0 0 0 0 0 0 0 0 0 0 0 0 0 0 0 0 0 0 0 0 0 0 0 0 0 0 0 0 0 0 0 0 0 0 0 0 0 0 0 0
0 0 0 0 0 0 0 0 0 0 0 0 0 0 0 0 0 0 0 0 0 0 0 0 0 0 0 0 0 0 0 0 0 0 0 0 0 0 0 0 0 0 0 0 0 0 0 0 0
0 0 0 0 0 0 0 0 0 0 0 0 0 0 0 0 0 0 0 0 0 0 0 0 0 0 0 0 0 0 0 0 0 0 0 0 0 0 0 0 0 0 0 0 0 0 0 0 0
0 0 0 0 0 0 0 0 0 0 0 0 0 0 0 0 0 0 0 0 0 0 0 0 0 0 0 0 0 0 0 0 0 0 0 0 0 0 0 0 0 0 0 0 0 0 0 0 0
0 0 0 0 0 0 0 0 0 0 0 0 0 0 0 0 0 0 0 0 0 0 0 0 0 0 0 0 0 0 0 0 0 0 0 0 0 0 0 0 0 0 0 0 0 0 0 0 0
0 0 0 0 0 0 0 0 0 0 0 0 0 0 0 0 0 0 0 0 0 0 0 0 0 0 0 0 0 0 0 0 0 0 0 0 0 0 0 0 0 0 0 0 0 0 0 0 0
Wind_Speed
5 2 2 4 7 4 4 6 3 2 2 2 3 5 6 4 5 4 3 8 12 9 7 9 12 13 12 12 12 12 12 13 13 12 12 12 12 11 11 11 11 11 11 11 12 12 12 12 12
2 1 5 6 5 1 6 6 5 5 4 4 3 4 4 2 1 5 5 9 12 11 8 8 13 14 13 12 11 11 11 11 11 11 10 11 11 11 11 11 11 10 10 10 11 11 12 12 12
3 2 5 5 3 5 5 5 6 2 2 3 2 1 3 5 5 8 6 11 10 8 7 9 14 15 14 13 12 12 11 11 11 11 11 11 11 11 11 11 11 11 10 11 11 11 11 11 11
3 5 6 4 5 8 7 6 6 4 1 1 3 1 2 2 7 8 8 12 11 8 7 8 14 15 15 14 14 14 13 13 12 12 12 12 11 11 11 11 11 11 11 11 11 11 11 11 11
4 5 3 1 6 7 6 4 8 6 6 3 4 2 4 1 3 9 12 12 12 8 6 7 13 15 15 16 16 15 15 15 14 14 13 12 11 11 11 11 11 11 11 11 11 11 11 11 11
5 5 3 3 7 6 4 6 6 5 4 3 4 2 4 2 7 11 10 10 11 9 7 6 11 13 15 16 16 15 15 15 14 14 14 13 12 12 11 11 11 11 11 11 11 12 11 12 13
4 4 3 4 5 6 4 7 7 6 5 7 7 5 3 3 6 9 8 8 8 8 7 5 6 8 12 14 14 15 15 14 14 13 14 14 13 12 10 11 11 11 12 12 12 12 12 12 12
5 4 2 4 4 6 2 3 3 7 6 4 8 8 7 7 8 7 7 7 7 7 7 6 5 5 5 7 12 13 14 14 14 14 14 13 13 12 11 9 10 11 12 12 12 12 12 12 12
5 4 4 6 4 4 2 2 2 2 2 3 5 6 3 9 12 9 6 5 7 8 8 8 7 6 5 5 8 11 13 13 13 12 12 10 6 6 6 8 11 11 11 12 12 12 12 11 11
4 4 9 6 3 3 3 5 4 3 4 4 4 2 3 10 15 14 13 14 15 15 12 10 10 8 7 6 5 4 5 6 6 4 6 5 5 5 6 10 11 11 10 10 11 11 10 8 4
7 9 7 6 5 3 3 5 4 6 10 11 10 8 7 9 14 17 17 16 18 13 12 12 12 10 8 5 5 3 3 3 4 5 6 5 4 4 4 3 5 5 6 4 5 5 3 3 3
6 9 8 6 4 4 5 4 5 10 16 11 12 7 11 14 19 20 20 18 13 10 15 13 12 11 10 7 6 5 4 3 4 5 6 5 4 4 4 3 4 3 2 2 2 2 3 4 4
7 7 7 7 6 6 6 8 7 13 15 8 7 7 14 17 19 20 18 13 12 13 15 15 14 14 11 9 6 7 5 5 5 4 5 6 5 5 4 4 3 3 2 2 2 3 4 5 5
5 5 6 7 8 5 8 10 4 20 9 8 11 12 13 18 20 17 16 15 17 18 17 15 16 15 13 11 9 7 6 6 5 5 6 7 6 6 5 5 4 3 2 2 2 3 4 4 4
2 5 11 8 7 7 4 10 12 23 7 9 12 12 12 16 17 20 22 21 21 18 17 18 17 16 16 14 12 8 7 7 6 5 6 7 7 7 6 5 4 3 3 3 3 3 3 3 4
2 2 8 8 4 4 9 15 17 11 6 13 13 12 12 14 17 20 19 18 18 15 18 20 17 18 18 15 12 9 8 8 7 6 6 7 7 7 6 5 4 4 3 3 3 3 3 3 3
2 6 10 11 6 6 9 15 14 5 8 13 14 12 12 14 16 18 17 19 19 20 20 20 20 20 18 14 10 9 8 9 7 7 6 7 7 7 6 5 4 4 3 2 2 2 2 2 3
11 9 8 12 6 7 10 17 17 7 8 12 12 11 11 15 22 16 14 18 18 17 17 19 19 18 15 11 7 6 7 7 7 7 7 8 7 8 6 5 5 5 4 3 2 3 2 1 2
8 9 13 15 7 7 14 20 20 17 11 13 15 16 17 19 23 13 11 14 14 14 16 19 19 19 16 13 12 11 11 9 8 8 9 10 9 9 8 6 6 5 4 4 4 3 3 2 3
10 12 16 14 11 9 13 21 17 17 18 16 17 19 20 19 21 13 9 10 14 18 19 20 21 21 20 15 12 7 7 5 6 7 9 10 10 9 8 8 6 5 4 4 4 3 3 2 3
14 14 18 15 8 7 11 15 12 14 17 15 14 16 18 20 24 18 9 10 13 17 21 20 22 20 19 13 9 6 4 3 5 7 8 9 9 8 8 8 7 6 6 5 4 4 6 4 2
19 13 15 12 8 8 5 21 10 11 14 15 18 18 20 22 22 18 10 10 15 18 17 18 19 18 17 16 16 17 13 13 12 7 7 8 9 9 8 8 8 7 5 6 5 4 4 6 4
17 7 6 6 7 8 5 15 11 7 10 14 17 18 20 21 20 16 12 12 13 12 14 15 16 17 15 17 19 18 14 10 5 6 9 8 8 9 9 8 7 7 5 6 6 5 5 5 5
6 1 3 3 2 11 10 14 14 11 13 12 15 17 19 21 18 10 7 7 7 9 10 12 15 16 16 18 18 19 17 13 11 10 12 10 7 8 9 9 7 7 6 7 7 5 6 5 6
6 5 3 5 3 13 8 11 13 11 12 15 17 17 20 18 10 5 7 9 10 12 13 13 17 17 17 18 19 20 19 17 17 14 14 12 9 9 12 10 9 7 6 7 6 6 6 7 7
9 12 11 9 10 11 4 14 11 10 10 10 12 11 9 7 4 7 9 10 11 13 14 15 18 17 18 20 20 17 15 13 12 13 12 14 11 11 12 11 10 9 8 8 7 5 5 5 7
7 10 9 7 6 10 11 11 11 7 10 13 11 7 8 8 7 7 7 8 10 13 17 19 19 18 19 20 17 15 16 15 14 11 10 10 8 9 12 12 12 11 10 9 8 6 6 6 6
7 6 5 7 8 10 14 15 10 7 11 8 6 6 8 6 6 7 7 9 10 12 12 13 16 19 17 16 16 14 15 15 12 11 13 12 11 11 13 13 13 12 11 10 9 7 7 7 7
7 6 8 7 7 9 11 16 8 7 4 4 6 7 8 8 9 8 8 8 8 8 10 13 15 14 14 17 17 15 15 14 12 12 14 13 13 14 15 15 14 14 13 11 9 8 9 9 8
9 13 12 10 13 9 9 17 17 9 11 13 17 16 11 9 8 7 7 6 7 10 12 15 16 16 18 16 14 15 13 13 15 15 14 15 15 15 15 15 15 14 12 11 11 11 10 9 10
Wind_Direction
320 349 69 55 49 40 276 258 222 204 138 139 136 139 148 163 168 195 159 151 145 149 151 151 152 147 141 134 129 126 123 116 108 102 98 95 90 85 77 66 59 57 55 53 51 48 41 34 32
317 45 57 58 78 326 269 250 205 200 177 155 130 116 118 196 168 143 158 166 152 150 148 155 159 157 152 145 136 129 123 115 108 104 102 100 96 90 83 75 66 61 60 57 52 46 39 31 24
316 52 81 74 130 207 252 239 208 228 212 157 127 138 176 193 191 180 185 154 146 149 152 162 162 159 154 148 141 134 131 126 119 115 112 106 101 95 90 83 74 67 62 58 51 44 36 28 22
58 48 57 81 238 234 237 242 188 169 205 147 138 219 260 186 182 184 156 145 144 152 155 165 161 156 151 147 143 139 137 132 129 123 117 109 102 97 91 86 80 74 67 61 54 47 39 31 25
62 76 65 306 254 248 241 209 167 173 189 191 162 209 253 285 150 150 151 150 151 155 157 169 162 158 154 151 147 144 141 138 135 130 124 117 109 101 95 90 85 80 73 66 59 53 48 43 39
54 68 107 244 257 263 236 177 175 180 205 201 178 213 245 138 148 156 157 151 151 152 155 166 164 162 160 155 151 148 146 145 142 138 133 127 120 113 106 100 95 90 82 73 65 59 54 50 44
101 108 201 235 266 281 239 166 179 192 204 209 183 194 245 202 190 155 148 139 146 151 150 158 163 167 164 158 156 154 151 149 147 143 136 129 123 116 111 106 102 98 89 79 73 65 57 49 43
126 108 262 258 254 272 247 187 209 186 212 205 163 188 236 208 172 142 129 134 150 160 159 159 159 156 157 159 159 156 154 154 153 146 140 135 128 119 111 101 98 92 87 80 76 67 57 46 40
94 89 235 235 233 272 250 236 250 198 191 193 203 209 254 140 141 140 143 161 177 183 181 171 168 163 158 160 164 157 157 159 156 153 151 133 120 116 108 101 94 84 77 73 70 63 55 47 36
107 176 229 225 223 233 234 231 238 245 245 238 246 229 97 139 160 174 183 188 193 195 190 181 174 170 167 172 159 157 155 156 151 151 145 137 136 136 120 101 92 81 72 69 68 63 52 45 27
176 205 235 250 252 246 244 235 213 194 240 221 218 214 162 169 182 192 199 199 199 193 188 185 180 174 173 172 166 169 157 154 159 160 155 145 131 124 110 100 91 82 73 57 55 50 42 36 27
203 236 229 246 257 258 247 243 231 210 232 216 216 197 172 187 196 202 205 207 196 186 195 186 180 177 177 171 175 172 166 165 169 172 163 149 140 135 133 123 120 111 107 89 65 55 42 35 24
225 254 248 250 273 257 250 243 251 254 246 237 234 209 193 201 208 212 213 209 194 196 193 189 181 180 177 173 180 178 177 176 173 172 171 160 151 149 144 137 135 137 130 113 89 60 44 32 20
242 259 282 274 268 255 239 259 241 266 257 241 237 231 213 214 215 215 215 210 203 203 196 188 186 182 177 180 183 180 178 175 171 173 175 166 158 155 150 143 144 145 137 125 103 78 59 40 18
302 307 298 265 243 249 199 270 234 249 266 263 252 246 234 226 221 218 217 213 207 204 194 189 188 182 181 182 183 178 178 173 174 173 173 170 164 159 152 148 152 155 142 125 107 88 77 52 20
341 286 276 273 219 197 155 250 253 248 239 260 263 258 253 245 229 227 220 215 210 199 194 192 187 186 186 184 180 177 176 174 177 173 171 172 167 159 151 150 157 156 138 124 111 84 76 46 13
279 241 249 279 232 185 190 243 262 241 218 249 260 259 255 259 251 233 219 214 210 203 195 190 188 186 186 180 175 172 172 176 176 173 172 173 168 160 153 154 158 151 133 124 114 84 88 45 353
231 225 243 258 247 182 216 244 262 255 229 246 258 261 256 257 258 245 215 214 211 204 194 188 185 181 175 168 160 162 171 176 175 177 178 172 169 163 155 155 160 152 139 135 122 110 88 63 333
233 236 245 254 248 202 230 244 257 268 252 249 253 256 255 258 264 255 218 209 203 193 187 185 182 177 172 175 176 179 187 184 183 184 180 176 173 169 163 159 160 160 154 155 148 127 98 50 7
253 261 262 270 261 237 249 254 255 260 259 249 247 251 253 256 266 258 224 208 196 191 187 184 183 179 181 183 182 176 165 175 181 181 184 182 177 173 171 162 164 164 151 153 163 151 123 78 37
238 236 252 255 289 289 288 273 243 249 254 257 250 247 251 252 260 265 223 208 195 191 187 185 185 181 180 169 155 136 124 118 174 193 190 188 179 174 169 167 164 167 160 164 175 169 138 127 75
256 235 247 264 272 265 249 287 254 236 250 252 252 249 250 253 255 258 230 205 200 196 185 183 181 179 175 167 171 173 185 193 193 181 178 177 178 176 172 172 171 170 164 163 174 186 146 131 130
243 260 256 260 257 275 188 266 270 197 242 250 247 245 247 251 251 247 226 209 200 184 179 178 176 177 174 176 179 185 194 194 160 156 168 176 181 181 177 176 174 173 167 165 170 175 152 132 138
233 116 358 40 22 272 193 233 272 177 214 234 242 242 245 250 253 244 221 188 176 167 170 172 175 179 178 182 185 192 194 182 173 179 180 182 181 184 182 176 175 175 170 169 169 177 161 142 140
160 156 328 315 278 257 190 229 259 217 213 215 229 238 244 249 261 230 192 182 176 176 177 177 181 184 185 189 193 198 197 191 193 188 187 184 182 187 187 181 178 177 175 169 163 170 170 154 148
189 169 188 219 245 273 197 240 254 248 258 266 257 256 279 303 275 223 205 192 187 184 182 184 189 191 190 195 200 200 197 196 201 193 191 192 192 187 181 177 172 171 171 169 165 166 176 161 150
167 205 201 196 261 281 261 262 295 276 267 259 268 293 293 284 265 241 214 198 192 191 193 193 194 195 197 200 199 199 199 200 200 189 186 190 181 173 172 172 171 172 173 170 167 174 177 165 152
178 175 134 173 206 244 268 272 265 268 266 287 296 284 284 282 266 246 227 214 206 203 201 199 201 203 202 200 201 202 202 203 194 182 189 185 176 170 169 173 173 172 173 172 171 171 176 167 149
181 193 201 204 204 210 250 265 225 218 237 276 282 274 270 269 262 248 236 227 215 205 200 204 208 207 203 202 203 202 200 196 189 190 189 181 175 171 174 175 173 173 175 174 174 174 175 168 150
209 212 199 212 233 220 227 253 256 241 262 269 276 277 275 270 265 263 257 246 224 217 213 212 211 211 211 205 201 203 196 188 192 195 187 178 176 174 174 173 172 173 175 175 176 175 179 171 157